CW5194 Weather Reports


time (UTC)temp
F
wind
direction
speed
knots
gust
knots
rain 1hr
in
rain 24hr
in
rain mn
in
humidity
%
barometer
mb
20260906080042 65 40 0.9 3.5 0.00 0.08 0.00 80 1016.3
20260906075519 65 36 0.9 3.5 0.00 0.08 0.00 80 1016.3
20260906075024 65 49 0.9 3.5 0.00 0.08 0.00 80 1016.4
20260906074541 65 42 0.0 3.5 0.00 0.08 0.00 81 1016.3
20260906074023 65 11 0.9 3.5 0.00 0.08 0.00 81 1016.2
20260906073523 65 309 0.9 3.5 0.00 0.08 0.00 80 1016.2
20260906073050 65 42 0.9 2.6 0.00 0.08 0.00 80 1016.2
20260906072526 65 352 0.0 2.6 0.00 0.08 0.00 80 1016.3
20260906072026 65 47 0.0 2.6 0.00 0.08 0.00 80 1016.4
20260906071544 65 46 0.0 2.6 0.00 0.08 0.00 81 1016.4
20260906071020 65 0 0.0 2.6 0.00 0.08 0.00 81 1016.2
20260906070522 65 21 0.0 3.5 0.00 0.08 0.00 81 1016.2
20260906070040 65 36 0.0 3.5 0.00 0.08 0.00 80 1016.2
20260906065524 65 29 0.9 3.5 0.00 0.08 0.00 80 1016.3
20260906065023 66 0 0.9 3.5 0.00 0.08 0.00 81 1016.3
20260906064542 66 58 0.0 3.5 0.00 0.08 0.00 81 1016.3
20260906064024 66 68 0.0 3.5 0.00 0.08 0.00 81 1016.2
20260906063523 66 36 0.0 3.5 0.00 0.08 0.00 81 1016.2
20260906063041 66 0 0.0 2.6 0.00 0.08 0.00 82 1016.2
20260906062524 66 35 0.9 3.5 0.00 0.08 0.00 82 1016.2
20260906062024 66 319 0.0 3.5 0.00 0.08 0.00 82 1016.2
20260906061550 67 56 0.9 5.2 0.00 0.08 0.00 82 1016.2
20260906061023 67 42 0.9 5.2 0.00 0.08 0.00 82 1016.4
20260906060525 67 0 0.0 3.5 0.00 0.08 0.00 82 1016.4
20260906060048 67 9 0.0 1.7 0.00 0.08 0.00 81 1016.5
20260906055524 67 352 0.0 2.6 0.00 0.08 0.00 82 1016.4
20260906055025 68 350 0.0 3.5 0.00 0.08 0.00 82 1016.4
20260906054544 68 350 0.9 3.5 0.00 0.08 0.00 81 1016.3
20260906054022 68 0 1.7 3.5 0.00 0.08 0.00 82 1016.2
20260906053525 68 12 0.9 3.5 0.00 0.08 0.00 82 1016.2
20260906053041 68 352 0.9 5.2 0.00 0.08 0.00 83 1016.1
20260906052524 69 331 0.9 5.2 0.00 0.08 0.00 84 1016.0
20260906052024 69 15 0.9 5.2 0.00 0.08 0.00 84 1016.0
20260906051541 69 0 0.9 3.5 0.00 0.08 0.00 85 1015.8
20260906051024 69 340 0.9 3.5 0.00 0.08 0.00 85 1015.8
20260906050526 69 0 0.9 3.5 0.00 0.08 0.00 85 1015.7
20260906050046 70 35 0.0 1.7 0.00 0.08 0.00 86 1015.7
20260906045523 70 0 0.0 3.5 0.00 0.08 0.00 86 1015.6
20260906045022 70 0 0.0 3.5 0.00 0.08 0.00 86 1015.6
20260906044544 70 341 0.9 3.5 0.00 0.08 0.00 86 1015.7
20260906044022 70 39 0.9 4.3 0.00 0.08 0.00 86 1015.7
20260906043525 70 0 0.9 4.3 0.00 0.08 0.00 87 1015.6
20260906043041 71 17 0.9 2.6 0.00 0.08 0.00 87 1015.6
20260906042523 71 0 0.0 2.6 0.00 0.08 0.00 86 1015.5
20260906042025 71 97 0.0 2.6 0.00 0.08 0.00 86 1015.6
20260906041548 71 0 0.9 3.5 0.00 0.08 0.00 86 1015.7
20260906041025 71 31 0.9 4.3 0.00 0.08 0.00 86 1015.7
20260906040524 71 24 0.9 4.3 0.00 0.08 0.00 87 1015.6
20260906040043 71 341 1.7 4.3 0.00 0.08 0.00 87 1015.6
20260906035521 72 0 0.9 3.5 0.00 0.08 0.08 87 1015.6
20260906035024 72 360 0.9 4.3 0.00 0.08 0.08 87 1015.4
20260906034542 72 49 0.9 4.3 0.00 0.08 0.08 87 1015.4
20260906034024 72 244 0.0 3.5 0.00 0.08 0.08 88 1015.3
20260906033523 72 22 0.9 3.5 0.00 0.08 0.08 88 1015.2
20260906033051 72 0 0.9 3.5 0.00 0.08 0.08 88 1015.3
20260906032525 72 16 0.9 3.5 0.00 0.08 0.08 88 1015.2
20260906032026 72 0 0.9 4.3 0.00 0.08 0.08 88 1015.2
20260906031544 73 28 0.0 4.3 0.00 0.08 0.08 88 1015.3
20260906031025 73 0 0.9 3.5 0.00 0.08 0.08 88 1015.3
20260906030522 73 347 0.9 3.5 0.00 0.08 0.08 88 1015.4
20260906030045 73 18 0.0 3.5 0.00 0.08 0.08 88 1015.5
20260906025524 73 314 0.9 3.5 0.00 0.08 0.08 88 1015.4
20260906025024 73 0 0.9 3.5 0.00 0.08 0.08 88 1015.4
20260906024541 73 38 0.9 3.5 0.00 0.08 0.08 88 1015.5
20260906024024 73 352 0.9 3.5 0.00 0.08 0.08 88 1015.5
20260906023525 73 0 0.9 3.5 0.00 0.08 0.08 88 1015.4
20260906023048 73 332 0.9 6.1 0.00 0.08 0.08 88 1015.5
20260906022521 73 60 0.9 6.1 0.00 0.08 0.08 87 1015.4
20260906022022 73 34 1.7 4.3 0.00 0.08 0.08 87 1015.4
20260906021545 73 24 0.9 3.5 0.00 0.08 0.08 87 1015.2
20260906021018 73 28 0.9 3.5 0.00 0.08 0.08 87 1015.2
20260906020524 73 9 0.0 3.5 0.00 0.08 0.08 87 1015.1
20260906020041 73 360 0.9 3.5 0.00 0.08 0.08 87 1015.1
20260906015523 74 23 0.9 3.5 0.00 0.08 0.08 87 1015.0
20260906015025 74 348 0.9 3.5 0.00 0.08 0.08 87 1014.9
20260906014552 74 0 0.0 2.6 0.00 0.08 0.08 87 1014.9
20260906014024 74 5 0.0 2.6 0.00 0.08 0.08 87 1014.9
20260906013522 74 38 0.9 3.5 0.00 0.08 0.08 86 1014.9
20260906013046 74 38 0.9 3.5 0.00 0.08 0.08 86 1014.7
20260906012521 74 60 0.9 3.5 0.00 0.08 0.08 86 1014.5
20260906012025 74 37 0.9 3.5 0.00 0.08 0.08 87 1014.5
20260906011540 75 0 0.0 3.5 0.00 0.08 0.08 87 1014.5
20260906011024 75 177 0.9 4.3 0.00 0.08 0.08 87 1014.5
20260906010525 75 0 0.9 4.3 0.00 0.08 0.08 88 1014.5
20260906010051 75 0 0.9 6.1 0.00 0.08 0.08 88 1014.5
20260906005524 75 20 0.0 6.1 0.00 0.08 0.08 88 1014.3
20260906005026 75 5 0.9 5.2 0.00 0.08 0.08 88 1014.2
20260906004542 75 0 0.9 4.3 0.00 0.08 0.08 89 1014.2
20260906004027 74 42 0.9 4.3 0.00 0.08 0.08 89 1014.2
20260906003521 74 309 0.9 4.3 0.00 0.08 0.08 89 1014.0
20260906003051 74 0 0.9 4.3 0.00 0.08 0.08 89 1013.7
20260906002518 73 0 0.0 2.6 0.00 0.08 0.08 89 1013.7
20260906002025 73 0 0.0 0.0 0.00 0.08 0.08 89 1013.8
20260906001549 73 0 0.0 0.0 0.01 0.08 0.08 88 1013.8
20260906001025 73 0 0.0 0.0 0.01 0.08 0.08 89 1013.7
20260906000525 73 0 0.0 0.0 0.01 0.08 0.08 88 1013.8
20260906000050 73 0 0.0 1.7 0.01 0.08 0.08 88 1013.9
20260905235523 73 0 0.0 1.7 0.01 0.08 0.08 88 1013.8
20260905235023 73 108 0.0 1.7 0.01 0.08 0.08 87 1013.8
20260905234545 74 0 0.0 1.7 0.01 0.08 0.08 87 1013.7
20260905234021 74 108 0.9 1.7 0.01 0.08 0.08 86 1013.9
20260905233522 74 0 0.0 1.7 0.01 0.08 0.08 85 1013.8
20260905233041 75 107 0.0 1.7 0.01 0.08 0.08 85 1013.7
20260905232525 75 0 0.0 3.5 0.01 0.08 0.08 82 1013.7
20260905232023 75 217 0.0 3.5 0.01 0.08 0.08 84 1013.8
20260905231548 75 174 1.7 3.5 0.00 0.07 0.07 84 1013.8
20260905231023 75 0 0.0 2.6 0.00 0.07 0.07 84 1013.8
20260905230524 75 89 0.9 4.3 0.00 0.07 0.07 83 1013.7
20260905230042 75 308 0.0 10.4 0.00 0.07 0.07 84 1014.2
20260905225523 74 306 2.6 10.4 0.02 0.07 0.07 82 1014.2
20260905225020 74 258 0.9 4.3 0.04 0.07 0.07 84 1014.5
20260905224541 74 277 0.9 2.6 0.04 0.07 0.07 85 1014.7
20260905224024 74 271 0.9 1.7 0.05 0.07 0.07 85 1014.0
20260905223525 74 51 0.0 3.5 0.05 0.07 0.07 84 1014.0
20260905223048 75 50 0.9 3.5 0.05 0.07 0.07 84 1014.0
20260905222525 75 352 0.9 3.5 0.05 0.07 0.07 83 1013.7
20260905222023 75 338 0.9 3.5 0.05 0.07 0.07 83 1013.6
20260905221544 76 345 0.0 2.6 0.05 0.07 0.07 83 1013.2
20260905221022 76 36 0.0 3.5 0.05 0.07 0.07 83 1013.2
20260905220523 77 304 0.9 3.5 0.05 0.07 0.07 82 1013.2
20260905220041 78 0 0.9 10.4 0.05 0.07 0.07 78 1013.2
20260905215524 81 301 3.5 10.4 0.03 0.06 0.05 73 1013.3
20260905215026 84 360 5.2 10.4 0.01 0.04 0.03 70 1013.3
20260905214548 85 320 1.7 5.2 0.00 0.03 0.02 69 1013.2
20260905214027 86 291 1.7 5.2 0.00 0.03 0.02 66 1012.9
20260905213524 86 302 0.0 2.6 0.00 0.03 0.02 65 1012.8
20260905213044 87 329 0.9 5.2 0.00 0.03 0.02 63 1012.9
20260905212522 88 300 0.0 5.2 0.00 0.03 0.02 62 1012.8
20260905212022 89 224 1.7 5.2 0.00 0.03 0.02 61 1012.8
20260905211542 89 271 0.9 7.0 0.00 0.03 0.02 61 1012.7
20260905211020 89 313 1.7 7.0 0.00 0.03 0.02 61 1012.7
20260905210521 89 333 1.7 7.0 0.00 0.03 0.02 62 1012.9
20260905210048 89 333 3.5 7.8 0.00 0.03 0.02 60 1013.0
20260905205526 89 198 3.5 7.8 0.00 0.03 0.02 61 1013.1
20260905205024 89 252 1.7 7.0 0.00 0.03 0.02 62 1013.2
20260905204544 88 331 2.6 7.0 0.00 0.03 0.02 62 1013.4
20260905204023 88 332 1.7 7.0 0.00 0.03 0.02 63 1013.3
20260905203521 88 329 1.7 6.1 0.00 0.03 0.02 61 1013.5
20260905203042 89 308 1.7 7.8 0.00 0.03 0.02 61 1013.5
20260905202519 89 298 1.7 7.8 0.00 0.03 0.02 62 1013.5
20260905202018 88 78 2.6 7.8 0.00 0.03 0.02 61 1013.6
20260905201541 89 229 1.7 7.0 0.00 0.03 0.02 61 1013.5
20260905201023 89 123 2.6 7.0 0.00 0.03 0.02 62 1013.7
20260905200527 89 292 1.7 5.2 0.00 0.03 0.02 62 1013.6
20260905200056 88 266 1.7 7.0 0.00 0.03 0.02 63 1013.8
20260905195523 88 234 2.6 7.0 0.00 0.03 0.02 60 1013.8
20260905195024 88 210 1.7 7.8 0.00 0.03 0.02 62 1013.8
20260905194547 89 317 1.7 8.7 0.00 0.03 0.02 63 1013.9
20260905194025 89 261 3.5 8.7 0.00 0.03 0.02 60 1013.9
20260905193531 88 254 2.6 8.7 0.00 0.03 0.02 62 1014.0
20260905193044 87 261 2.6 7.8 0.00 0.03 0.02 63 1014.1
20260905192519 87 213 3.5 7.0 0.00 0.03 0.02 62 1014.2
20260905192018 87 352 2.6 7.8 0.00 0.03 0.02 61 1014.2
20260905191542 87 223 1.7 8.7 0.00 0.03 0.02 61 1014.2
20260905191025 87 223 5.2 8.7 0.00 0.03 0.02 61 1014.3
20260905190524 87 250 1.7 6.1 0.00 0.03 0.02 61 1014.4
20260905190057 87 246 0.9 8.7 0.00 0.03 0.02 62 1014.4
20260905185521 87 223 3.5 8.7 0.00 0.03 0.02 62 1014.5
20260905185021 86 205 3.5 6.1 0.00 0.03 0.02 60 1014.6
20260905184547 87 211 2.6 8.7 0.00 0.03 0.02 60 1014.7
20260905184021 87 317 1.7 9.6 0.00 0.03 0.02 63 1014.8
20260905183525 86 242 4.3 10.4 0.00 0.03 0.02 61 1014.9
20260905183045 86 248 5.2 10.4 0.00 0.03 0.02 61 1014.9
20260905182524 86 270 4.3 9.6 0.00 0.03 0.02 60 1015.0
20260905182026 86 227 2.6 10.4 0.00 0.03 0.02 63 1015.0
20260905181544 86 244 4.3 10.4 0.00 0.03 0.02 62 1015.0
20260905181024 86 214 4.3 10.4 0.00 0.03 0.02 61 1015.1
20260905180524 86 229 3.5 8.7 0.00 0.03 0.02 63 1015.1
20260905180045 85 344 1.7 7.0 0.00 0.03 0.02 62 1015.0
20260905175522 85 231 1.7 7.0 0.00 0.03 0.02 63 1015.1
20260905175024 85 242 2.6 7.8 0.00 0.03 0.02 61 1015.0
20260905174542 85 219 2.6 8.7 0.00 0.03 0.02 66 1015.0
20260905174024 84 201 3.5 10.4 0.00 0.03 0.02 63 1015.0
20260905173524 84 212 5.2 10.4 0.00 0.03 0.02 63 1015.0
20260905173048 84 297 4.3 10.4 0.00 0.03 0.02 63 1015.0
20260905172524 84 298 1.7 8.7 0.00 0.03 0.02 65 1015.0
20260905172024 84 272 2.6 12.2 0.00 0.03 0.02 64 1015.2
20260905171551 84 244 7.0 12.2 0.00 0.03 0.02 66 1015.2
20260905171023 84 210 2.6 8.7 0.00 0.03 0.02 65 1015.3
20260905170520 84 262 2.6 8.7 0.00 0.03 0.02 65 1015.2
20260905170049 84 234 2.6 10.4 0.00 0.03 0.02 67 1015.2
20260905165524 84 243 2.6 10.4 0.00 0.03 0.02 66 1015.1
20260905165024 84 209 1.7 8.7 0.00 0.03 0.02 71 1015.2
20260905164549 83 343 2.6 10.4 0.00 0.03 0.02 69 1015.2
20260905164024 82 218 1.7 10.4 0.00 0.03 0.02 71 1015.2
20260905163523 81 284 5.2 10.4 0.00 0.03 0.02 70 1015.4
20260905163049 80 245 3.5 8.7 0.00 0.03 0.02 72 1015.5
20260905162523 80 239 2.6 7.8 0.00 0.03 0.02 72 1015.6
20260905162022 80 327 3.5 7.8 0.00 0.03 0.02 70 1016.3
20260905161541 80 325 0.9 3.5 0.00 0.03 0.02 71 1016.1
20260905161020 80 259 0.9 8.7 0.00 0.03 0.02 71 1015.9
20260905160518 80 264 1.7 8.7 0.00 0.03 0.02 71 1015.9
20260905160052 81 195 2.6 8.7 0.00 0.03 0.02 69 1015.8
20260905155525 81 227 1.7 8.7 0.00 0.03 0.02 70 1015.8
20260905155023 81 227 3.5 8.7 0.00 0.03 0.02 69 1015.8
20260905154548 81 244 2.6 6.1 0.00 0.03 0.02 69 1015.8
20260905154024 81 257 1.7 5.2 0.00 0.03 0.02 69 1015.8
20260905153525 80 163 1.7 4.3 0.00 0.03 0.02 70 1016.0
20260905153101 80 238 2.6 6.1 0.00 0.03 0.02 69 1016.0
20260905152523 80 196 0.9 6.1 0.00 0.03 0.02 69 1015.9
20260905152025 80 195 2.6 7.0 0.00 0.03 0.02 70 1015.9
20260905151544 79 225 1.7 7.0 0.00 0.03 0.02 70 1015.8
20260905151021 79 154 2.6 7.8 0.00 0.03 0.02 72 1015.6
20260905150524 78 223 2.6 7.8 0.00 0.03 0.02 72 1015.4
20260905150041 78 205 3.5 7.8 0.00 0.03 0.02 72 1015.4
20260905145527 77 263 2.6 7.0 0.00 0.03 0.02 72 1015.6
20260905145025 77 265 3.5 7.0 0.00 0.03 0.02 74 1015.5
20260905144549 77 201 2.6 6.1 0.00 0.03 0.02 74 1015.3
20260905144025 76 245 2.6 6.1 0.00 0.03 0.02 74 1015.3
20260905143525 76 227 1.7 5.2 0.00 0.03 0.02 75 1015.5
20260905143045 75 211 1.7 5.2 0.00 0.03 0.02 77 1015.4
20260905142522 75 205 1.7 6.1 0.00 0.03 0.02 78 1015.6
20260905142024 74 207 2.6 6.1 0.00 0.03 0.02 78 1015.7
20260905141555 73 221 2.6 5.2 0.00 0.03 0.02 79 1015.6
20260905141025 73 174 1.7 6.1 0.00 0.03 0.02 79 1015.7
20260905140524 73 175 2.6 6.1 0.00 0.03 0.02 81 1015.8
20260905140048 72 182 1.7 6.1 0.00 0.03 0.02 80 1015.8
20260905135525 72 170 2.6 6.1 0.00 0.03 0.02 81 1015.9
20260905135023 72 236 1.7 7.0 0.00 0.03 0.02 81 1015.9
20260905134544 71 196 1.7 7.0 0.00 0.03 0.02 82 1015.8
20260905134025 71 189 2.6 7.0 0.00 0.03 0.02 82 1015.8
20260905133524 71 164 3.5 6.1 0.00 0.03 0.02 82 1015.9
20260905133042 71 179 1.7 5.2 0.00 0.03 0.02 84 1015.9
20260905132525 70 150 1.7 5.2 0.00 0.03 0.02 84 1016.3
20260905132024 70 217 2.6 5.2 0.00 0.03 0.02 85 1016.4
20260905131602 69 313 0.9 7.0 0.00 0.03 0.02 84 1016.5
20260905131026 69 111 1.7 7.0 0.00 0.03 0.02 86 1016.4
20260905130524 69 207 0.0 3.5 0.00 0.03 0.02 86 1016.5
20260905130045 69 188 0.9 3.5 0.00 0.03 0.02 86 1016.7
20260905125526 68 110 0.9 3.5 0.00 0.03 0.02 87 1016.5
20260905125025 68 0 0.0 2.6 0.00 0.03 0.02 86 1016.7
20260905124544 68 171 0.0 1.7 0.00 0.03 0.02 86 1016.7
20260905124026 68 169 0.0 1.7 0.00 0.03 0.02 85 1016.6
20260905123524 68 0 0.0 1.7 0.00 0.03 0.02 85 1016.6
20260905123049 68 0 0.0 1.7 0.00 0.03 0.02 85 1016.6
20260905122527 68 343 0.0 2.6 0.00 0.03 0.02 85 1016.7
20260905122025 68 0 0.0 2.6 0.00 0.03 0.02 85 1016.5
20260905121547 68 169 0.0 2.6 0.00 0.03 0.02 84 1016.3
20260905121023 68 0 0.9 3.5 0.00 0.03 0.02 85 1016.3
20260905120523 68 92 0.0 3.5 0.00 0.03 0.02 84 1016.2
20260905120042 68 153 0.0 5.2 0.00 0.03 0.02 83 1016.0
20260905115525 68 185 1.7 5.2 0.00 0.03 0.02 83 1015.9
20260905115023 68 0 0.0 3.5 0.00 0.03 0.02 83 1016.1
20260905114549 68 0 0.0 3.5 0.00 0.03 0.02 83 1016.1
20260905114024 68 270 0.9 3.5 0.00 0.03 0.02 83 1016.1
20260905113524 68 90 0.9 3.5 0.00 0.03 0.02 83 1016.1
20260905113049 68 20 0.9 4.3 0.00 0.03 0.02 83 1016.4
20260905112524 68 172 0.0 7.8 0.00 0.03 0.02 83 1016.3
20260905112023 68 227 1.7 7.8 0.00 0.03 0.02 83 1016.4
20260905111544 68 40 0.9 5.2 0.00 0.03 0.02 83 1016.3
20260905111023 68 105 0.9 7.0 0.00 0.03 0.02 84 1016.1
20260905110521 68 49 1.7 7.0 0.00 0.03 0.02 83 1016.3
20260905110041 68 44 0.9 11.3 0.00 0.03 0.02 84 1016.2
20260905105523 68 46 4.3 11.3 0.00 0.03 0.02 84 1016.2
20260905105019 68 58 1.7 6.1 0.01 0.03 0.02 86 1016.7
20260905104549 68 64 0.9 5.2 0.02 0.03 0.02 86 1017.1
20260905104023 68 0 0.9 4.3 0.02 0.03 0.02 86 1017.1
20260905103526 68 44 0.9 4.3 0.02 0.03 0.02 86 1017.0
20260905103053 68 0 0.0 2.6 0.02 0.03 0.02 86 1017.0
20260905102524 68 32 0.0 3.5 0.02 0.03 0.02 86 1017.1
20260905102023 68 51 0.9 3.5 0.02 0.03 0.02 85 1017.1
20260905101548 68 155 0.9 4.3 0.02 0.03 0.02 85 1017.0
20260905101022 68 302 0.9 5.2 0.02 0.03 0.02 85 1017.0
20260905100521 69 17 1.7 8.7 0.02 0.03 0.02 84 1017.1
20260905100041 69 36 1.7 8.7 0.02 0.03 0.02 84 1017.0
20260905095526 69 105 1.7 8.7 0.02 0.03 0.02 83 1017.0
20260905095026 70 28 1.7 8.7 0.01 0.02 0.01 81 1017.0
20260905094549 70 73 2.6 8.7 0.00 0.01 0.00 80 1017.0
20260905094023 71 11 1.7 11.3 0.00 0.01 0.00 78 1016.9
20260905093524 71 109 3.5 16.5 0.00 0.01 0.00 78 1017.0
20260905093043 71 360 1.7 16.5 0.00 0.01 0.00 78 1016.8
20260905092522 71 310 4.3 11.3 0.00 0.01 0.00 78 1016.9
20260905092022 72 328 3.5 13.0 0.00 0.01 0.00 78 1017.0
20260905091541 72 153 3.5 13.0 0.00 0.01 0.00 79 1017.0
20260905091020 72 328 3.5 11.3 0.00 0.01 0.00 87 1016.7
20260905090522 72 61 0.9 3.5 0.00 0.01 0.00 90 1016.2
20260905085521 72 0 0.0 1.7 0.00 0.01 0.00 89 1015.4
20260905085024 72 0 0.0 0.9 0.00 0.01 0.00 89 1015.3
20260905084548 72 0 0.0 0.9 0.00 0.01 0.00 89 1015.4
20260905084031 72 0 0.0 0.9 0.00 0.01 0.00 89 1015.3
20260905083520 72 198 0.0 0.9 0.00 0.01 0.00 89 1015.2
20260905083049 72 0 0.0 1.7 0.00 0.01 0.00 89 1015.1
20260905082525 72 198 0.0 1.7 0.00 0.01 0.00 89 1015.1
20260905082023 72 236 0.0 0.9 0.00 0.01 0.00 89 1014.8
20260905081547 72 0 0.0 0.0 0.00 0.01 0.00 89 1014.7
20260905081024 72 0 0.0 0.0 0.00 0.01 0.00 89 1014.8
20260905080522 72 0 0.0 0.0 0.00 0.01 0.00 89 1014.9